SCP
0 0 0 0 0 0 0 0 0 0 0 0 0 0 0 0 0 0 0 0 0 1 1 1 1 1 1 1 1 1 1 1 1 1 1 1 2 1 1 1 1 1 1 1 0 0 0 0 0
0 0 0 0 0 0 0 0 0 0 0 0 0 0 0 0 0 0 0 0 1 1 1 1 1 1 1 1 1 1 1 1 1 1 1 1 1 1 1 1 1 1 0 0 0 0 0 0 0
0 0 0 0 0 0 0 0 0 0 0 0 0 1 1 0 0 0 0 0 1 1 1 1 1 1 1 1 1 1 1 1 0 0 1 1 1 1 0 0 0 0 0 0 0 0 0 0 0
0 0 0 0 0 0 0 0 0 0 0 0 1 1 1 0 0 0 0 1 1 1 1 1 1 1 1 1 1 1 1 1 0 0 0 0 0 0 0 0 0 0 0 0 0 0 0 0 0
0 0 0 0 0 0 0 0 0 0 0 0 1 1 1 0 0 0 1 1 1 1 1 1 1 1 1 1 1 1 1 1 1 0 0 0 0 0 0 0 0 0 0 0 0 0 0 0 0
0 0 0 0 0 0 0 0 0 0 0 0 1 1 0 0 0 0 1 1 1 1 1 1 1 1 1 1 1 1 1 1 1 1 0 0 0 0 0 0 0 0 0 0 0 1 1 1 1
0 0 0 0 0 0 0 0 0 0 0 0 1 1 0 0 0 0 1 1 1 1 1 1 1 1 1 1 1 1 1 1 1 1 1 0 0 0 0 0 0 0 0 0 1 1 1 1 0
0 0 0 0 0 0 0 0 0 0 0 0 1 1 1 0 0 0 1 1 1 1 1 1 1 1 1 1 1 1 1 1 1 1 1 0 0 0 0 0 0 0 0 0 1 1 1 0 0
0 0 0 0 0 0 0 0 0 0 0 0 0 0 1 1 1 1 1 1 1 1 1 1 1 1 1 1 1 1 1 1 1 1 1 0 0 0 0 0 0 0 0 0 0 0 0 0 0
0 0 0 0 0 0 0 0 0 0 0 0 0 0 1 1 1 1 1 1 1 1 1 1 1 1 1 1 1 1 1 1 1 1 1 0 0 0 0 0 0 0 0 0 0 0 0 0 0
0 0 -0 0 0 0 0 0 0 0 0 0 1 1 1 1 1 1 1 1 1 1 1 1 1 1 1 1 1 1 2 1 1 1 1 0 0 0 0 0 0 0 0 0 0 0 0 0 0
0 0 0 0 0 0 0 0 0 0 0 0 1 2 2 2 2 1 1 1 1 1 1 1 1 1 1 1 1 2 2 2 1 1 1 0 0 0 0 0 0 0 0 0 0 0 0 0 0
0 0 0 0 0 0 0 0 0 0 0 1 2 2 3 3 3 2 2 1 1 1 1 1 1 2 2 1 1 2 2 2 1 1 1 0 0 0 0 0 0 0 0 0 0 0 0 0 0
0 0 0 0 0 0 0 0 0 0 1 2 2 3 3 4 4 4 3 2 2 1 1 1 2 2 2 2 1 1 1 1 1 1 1 0 0 0 0 0 0 0 0 0 0 0 0 0 0
0 0 0 0 0 0 0 0 0 1 1 2 3 3 4 5 5 5 4 3 2 2 2 2 2 2 2 2 1 1 1 1 1 1 1 0 0 0 0 0 0 0 0 0 0 0 0 0 0
0 0 0 0 0 0 0 0 0 1 1 2 2 3 4 5 6 5 4 3 3 2 2 2 2 2 2 2 2 1 1 1 1 1 1 1 0 0 0 0 0 0 0 0 0 0 0 0 0
0 0 0 0 0 0 0 0 0 1 1 2 2 3 4 6 6 5 4 3 3 3 3 3 3 3 3 2 2 2 2 2 2 2 1 1 1 1 0 0 0 0 0 0 0 0 0 0 0
0 0 0 0 0 0 0 0 0 0 1 1 2 2 4 5 6 5 4 4 4 4 4 4 4 4 4 4 3 2 2 2 3 2 1 1 1 1 0 0 0 0 0 0 0 0 0 0 0
0 0 0 0 0 0 0 0 0 0 0 1 1 2 3 4 5 5 5 4 4 5 5 5 5 5 5 5 4 3 3 2 2 1 1 0 0 0 0 0 0 0 0 0 0 0 0 0 0
0 0 0 0 0 0 0 0 0 0 0 0 1 1 2 2 3 4 4 4 4 5 5 6 6 6 6 6 5 4 2 2 1 1 0 0 0 0 0 0 0 0 0 0 0 0 0 0 0
0 0 0 0 0 0 0 0 0 0 0 0 0 1 1 1 2 3 3 4 4 5 6 7 7 7 7 7 5 3 1 1 0 0 0 0 0 0 0 0 0 0 0 0 0 0 0 0 0
0 0 0 0 0 0 0 0 0 0 0 0 1 1 1 1 1 2 3 3 4 6 7 8 8 9 8 7 5 3 1 0 0 0 0 0 0 0 0 0 0 0 0 0 0 0 0 0 0
0 0 0 0 0 0 0 0 0 0 0 1 1 1 1 1 2 2 3 4 5 7 8 9 11 10 8 6 3 2 1 0 0 0 0 0 0 0 0 0 0 0 0 0 0 0 0 0 0
0 0 0 0 0 0 0 0 0 0 1 2 2 2 2 3 3 4 5 6 7 8 10 12 12 10 6 3 1 1 0 0 0 0 0 0 0 0 0 0 0 0 0 0 0 0 0 0 0
0 0 0 0 0 0 0 0 0 1 2 3 3 3 3 4 4 5 6 7 8 11 13 13 11 7 3 1 0 0 0 0 0 0 0 0 0 0 0 0 0 0 0 0 0 0 0 0 0
0 0 0 0 0 0 0 0 1 2 3 3 3 3 3 3 4 4 5 7 9 11 11 10 7 3 1 0 0 0 0 0 0 0 0 0 0 0 0 0 0 0 0 0 0 0 0 0 0
0 0 0 0 0 0 0 0 1 2 3 3 2 2 2 2 3 3 4 5 7 7 6 4 2 1 0 0 0 0 0 0 0 0 0 0 0 0 0 0 0 0 0 0 0 0 0 0 0
0 0 0 0 0 0 0 0 1 1 2 3 2 2 2 2 2 3 3 3 2 2 2 1 0 0 0 0 0 0 0 0 0 0 0 0 0 0 0 0 0 0 0 0 0 0 0 0 0
0 0 0 0 0 0 0 0 1 1 2 2 2 2 1 1 2 1 1 1 0 0 0 0 0 0 0 0 0 0 0 0 0 0 0 0 0 0 0 0 0 0 0 0 0 0 0 0 0
0 0 0 0 0 0 0 0 1 2 3 3 2 1 1 1 1 1 0 0 0 0 0 0 0 0 0 0 0 0 0 0 0 0 0 0 0 0 0 0 0 0 0 0 0 0 0 0 0
Wind_Speed
1 5 3 3 6 5 4 5 3 2 2 2 4 5 5 4 4 3 1 7 12 11 8 11 14 16 17 16 15 15 15 15 14 13 13 13 12 12 12 11 11 10 10 9 9 9 9 9 9
2 4 3 5 6 2 6 5 4 3 3 3 3 3 2 1 1 4 4 7 13 12 8 10 14 15 17 17 16 16 16 15 14 13 13 13 12 11 11 11 10 10 9 8 7 7 7 8 7
2 3 5 6 4 5 5 4 3 1 2 3 3 2 1 3 5 5 6 11 12 10 8 11 16 15 16 17 17 16 16 15 15 14 13 12 12 10 10 10 10 9 8 7 6 6 6 6 6
4 5 6 5 5 7 6 5 1 0 1 2 4 3 1 2 6 6 12 13 12 9 8 11 16 16 16 16 16 16 16 15 15 14 13 12 11 10 9 10 9 8 7 6 6 5 5 5 5
5 5 4 0 6 7 7 7 4 4 4 3 5 4 1 2 7 12 13 13 12 9 7 9 15 16 16 16 16 15 15 14 14 13 13 11 10 9 8 8 8 7 7 6 5 4 4 4 4
6 6 4 4 7 7 6 7 5 7 4 4 6 5 1 3 9 11 11 10 9 10 8 8 15 17 17 16 16 15 14 13 13 12 11 10 9 8 8 8 8 7 6 5 4 3 3 3 3
6 5 5 5 4 5 5 4 6 7 6 6 8 6 2 4 7 10 9 9 8 8 8 7 8 12 16 16 15 14 14 13 12 11 11 10 9 9 9 8 7 7 6 5 3 2 1 1 2
5 6 3 3 4 5 3 2 3 7 6 4 7 8 7 8 9 9 9 7 7 8 8 7 6 7 7 10 15 16 15 13 13 13 12 12 11 10 10 8 7 7 6 5 4 2 1 1 2
4 5 4 5 6 4 2 2 1 2 6 4 4 6 6 14 14 11 8 7 8 10 9 8 7 7 7 7 11 13 14 13 13 11 12 10 5 5 5 7 8 8 7 6 4 3 2 2 3
4 4 8 6 4 3 3 2 3 3 3 3 2 3 13 17 16 15 14 14 14 14 13 9 9 8 7 8 6 5 6 6 6 4 5 4 3 3 4 5 9 8 7 5 4 3 2 2 2
6 7 6 5 5 3 4 4 2 7 5 9 10 13 19 17 15 16 16 16 16 14 13 12 11 9 9 6 5 4 3 4 4 5 5 4 3 2 2 1 2 2 2 1 3 3 3 2 2
5 5 5 4 2 2 4 4 3 8 11 8 11 18 22 21 20 20 19 17 13 12 15 13 12 11 10 7 6 6 4 4 4 5 5 4 3 2 2 1 1 1 1 1 2 2 3 3 3
4 5 5 6 6 5 5 6 5 8 8 6 13 17 22 22 20 17 14 13 13 15 16 15 14 13 11 8 7 7 7 6 6 4 5 5 4 3 2 2 1 1 1 1 2 2 3 4 5
4 4 5 6 7 5 5 5 4 9 5 11 17 20 20 21 20 15 14 15 16 17 17 15 16 14 11 10 8 7 7 6 5 5 6 6 4 3 3 2 2 1 2 2 3 4 4 4 5
2 3 6 4 3 3 2 3 5 6 6 12 16 18 18 16 16 18 19 18 17 15 15 14 15 13 12 11 9 6 6 5 5 5 6 6 5 4 3 3 2 2 3 4 5 6 5 5 5
1 1 2 6 3 3 1 4 5 3 7 11 12 14 14 15 17 17 15 14 13 12 12 13 14 13 12 10 8 5 4 5 4 3 4 5 5 5 4 3 3 4 4 4 5 4 5 4 4
4 1 2 5 3 3 2 5 6 3 6 9 11 13 15 14 15 16 15 15 14 13 12 12 12 12 11 8 5 3 3 2 1 1 1 3 4 5 5 4 4 5 5 4 4 4 3 3 3
3 2 1 3 4 5 3 6 9 4 6 9 10 12 13 16 22 18 15 14 12 11 10 11 10 9 9 6 4 3 3 3 3 2 2 3 4 7 7 6 6 6 6 5 4 5 4 3 2
3 2 2 5 4 2 5 8 10 5 5 8 9 10 14 19 20 13 11 10 10 10 11 11 10 8 8 6 5 4 3 3 4 4 5 5 6 7 8 7 6 6 5 4 4 4 5 4 2
3 2 3 6 3 1 5 9 10 6 5 7 9 11 15 15 12 11 11 10 12 12 11 10 10 8 7 6 5 5 6 5 4 4 5 6 7 7 8 8 6 6 5 5 3 3 3 3 3
4 4 4 5 6 5 3 9 9 7 4 5 5 7 9 12 13 12 11 11 10 10 10 9 8 8 8 9 8 7 6 4 3 4 4 5 7 7 8 8 7 6 5 5 4 3 4 3 3
5 7 5 2 1 5 2 4 10 7 8 6 6 5 6 8 8 7 7 7 8 7 8 9 10 10 9 9 9 8 6 4 3 3 5 5 6 7 8 7 7 6 5 5 4 3 3 4 2
7 4 5 3 3 2 1 3 11 6 6 8 8 9 7 5 2 1 3 5 6 8 11 11 12 11 9 8 8 6 6 5 6 6 8 7 5 6 7 6 6 6 5 5 5 4 4 3 3
4 4 5 5 5 2 5 6 8 4 5 8 7 9 9 7 7 8 9 11 11 11 12 12 14 12 9 9 8 7 9 10 10 8 8 6 4 4 6 6 5 5 4 4 4 4 5 3 3
5 5 4 3 2 7 3 4 7 4 4 4 6 8 9 9 10 11 11 12 11 11 12 12 13 11 9 9 8 8 9 10 11 9 8 7 5 3 4 4 4 4 4 4 4 3 3 2 2
6 10 8 6 6 5 1 5 3 2 5 6 8 10 11 12 12 13 12 12 11 11 11 11 12 11 9 9 9 9 9 7 7 7 6 6 4 4 4 4 4 4 4 4 4 4 3 3 2
7 7 8 7 3 2 4 3 1 4 6 8 10 11 12 12 13 13 13 12 12 12 11 11 12 11 11 11 11 10 10 9 9 8 6 5 4 5 5 5 6 6 6 6 6 5 5 4 4
6 7 6 7 8 5 4 3 3 2 4 6 8 9 10 11 12 12 12 12 12 12 12 12 12 12 11 10 9 9 9 9 9 8 8 6 5 6 7 7 7 7 7 7 7 6 5 5 4
4 4 4 4 5 8 5 5 2 2 1 5 7 8 9 10 11 11 11 11 12 12 12 12 11 12 11 11 10 10 9 9 9 9 8 7 7 7 8 8 8 8 7 6 6 5 5 5 5
4 4 7 5 4 4 5 4 3 1 5 8 8 9 9 10 10 10 10 10 10 11 11 10 10 11 10 10 11 10 10 10 10 9 8 8 8 7 7 7 7 7 6 5 6 5 5 5 5
Wind_Direction
140 129 120 74 47 38 292 266 257 288 242 201 142 138 158 167 188 215 82 125 129 135 143 152 151 145 141 137 133 129 125 123 120 119 119 120 121 122 123 123 123 121 119 115 110 103 96 92 89
156 130 74 61 79 357 282 262 268 248 202 123 107 98 115 167 109 121 129 132 133 135 139 150 150 146 143 140 137 134 133 131 129 129 129 130 131 131 132 134 133 132 130 128 122 112 103 96 91
125 75 87 78 129 194 246 257 239 281 150 130 120 83 147 176 154 157 151 138 132 134 139 155 151 148 145 143 141 139 139 139 139 140 141 141 142 142 143 145 145 145 144 141 133 121 108 97 88
91 56 56 89 219 228 231 249 239 19 237 132 121 101 62 145 161 153 141 141 134 137 142 154 153 150 148 147 147 146 145 146 148 149 150 150 150 151 153 154 155 155 155 151 142 128 111 93 81
64 80 77 182 243 248 241 249 226 209 207 159 128 124 47 61 117 134 143 145 142 140 143 154 155 154 154 153 153 153 153 153 154 155 156 156 156 156 157 159 161 163 165 163 153 136 113 87 69
63 75 110 226 252 261 255 233 202 214 207 147 131 132 204 128 138 148 147 143 143 145 145 155 161 161 160 160 159 159 159 159 159 160 160 161 162 163 164 165 168 171 173 171 160 137 104 72 49
112 117 174 209 248 266 252 219 198 197 189 174 143 135 208 174 164 147 138 132 137 149 153 159 167 167 167 165 165 165 164 165 165 166 167 168 170 172 175 175 177 180 182 182 178 156 107 48 15
133 122 181 217 225 250 265 276 222 174 183 154 136 157 200 188 151 134 123 126 142 159 167 169 169 166 166 168 172 171 171 172 174 176 178 180 182 185 188 186 189 192 195 198 199 196 204 288 316
105 94 203 220 209 243 291 325 273 160 131 144 172 185 188 146 143 136 131 142 164 177 183 181 176 172 166 168 179 177 178 180 182 185 188 185 186 190 195 197 200 203 205 210 213 219 239 284 329
118 161 220 224 217 253 295 258 205 133 136 167 157 126 135 148 157 160 167 175 181 187 190 189 185 179 172 178 176 174 177 181 183 182 187 177 175 192 198 209 211 214 216 226 240 267 310 3 5
168 191 225 245 241 267 291 284 195 147 196 207 187 160 152 163 171 178 183 187 190 188 188 192 190 184 180 180 171 174 172 176 183 186 183 172 173 188 199 192 239 246 248 357 9 11 22 23 7
183 228 228 258 253 282 258 264 229 195 214 202 172 161 164 175 183 188 189 192 190 189 194 191 190 188 188 184 179 178 178 182 187 190 181 169 172 183 183 183 185 87 65 62 39 24 22 27 26
219 252 247 256 277 253 244 238 237 240 237 153 151 164 177 185 191 195 194 192 191 195 197 194 191 192 190 187 184 185 187 188 187 185 183 176 178 185 181 181 164 140 120 105 74 58 62 62 59
233 246 276 281 278 259 237 249 216 255 199 156 163 178 188 193 193 192 193 196 198 201 200 195 195 194 190 192 191 189 189 186 183 186 186 182 180 179 176 173 154 135 126 113 101 92 87 76 71
284 292 314 286 268 261 226 299 229 256 159 167 179 187 192 199 198 202 201 200 201 203 200 198 197 193 193 195 194 190 186 184 188 190 187 184 181 177 167 155 136 120 114 108 98 88 79 73 66
17 43 315 296 315 309 181 274 278 269 167 183 189 193 197 204 208 210 205 203 200 200 200 200 199 195 196 196 189 186 180 181 186 182 183 185 178 161 144 133 119 109 101 101 99 89 79 65 66
26 106 245 301 358 19 49 267 281 281 196 201 199 201 204 209 218 216 208 204 199 198 196 197 199 192 191 185 168 163 148 152 138 125 150 161 148 135 123 114 107 102 92 85 91 71 82 70 65
217 208 260 283 313 6 343 282 290 260 221 222 214 210 209 213 221 217 209 203 197 193 193 196 196 188 173 159 139 121 94 79 67 67 83 109 113 115 111 104 97 93 91 82 81 83 65 64 55
187 188 269 273 286 319 298 290 289 278 233 234 230 224 220 224 227 218 208 199 190 190 191 192 190 180 163 158 153 140 117 86 71 65 70 86 99 104 105 105 96 90 90 91 98 93 74 46 12
195 236 276 291 330 318 300 292 285 274 238 231 229 228 228 232 233 220 206 197 196 195 190 184 183 168 160 154 138 115 108 90 80 87 83 91 100 104 106 107 103 99 99 91 88 109 105 54 21
196 199 229 265 335 349 309 310 306 301 308 290 258 239 239 232 228 221 209 204 198 194 183 172 161 144 138 127 109 103 89 83 85 89 89 92 103 103 108 111 112 112 111 109 102 110 123 120 48
231 222 207 227 358 300 10 302 294 301 321 317 319 311 280 260 241 225 205 195 190 177 145 136 130 124 122 122 128 131 128 121 122 118 107 97 97 106 106 111 114 115 114 115 111 98 105 118 111
212 208 189 202 190 271 276 195 280 325 316 317 336 342 338 322 286 204 156 137 126 120 119 118 113 107 108 108 110 105 101 110 119 117 113 103 93 103 111 114 117 115 111 113 108 103 97 96 116
174 77 50 52 88 245 232 172 269 304 304 315 346 9 16 33 58 73 82 92 96 103 109 112 110 108 108 106 108 117 128 133 132 131 122 112 107 102 105 112 109 110 111 113 115 115 114 114 119
129 106 25 357 29 241 231 179 247 308 346 353 14 34 43 53 68 76 80 85 91 97 104 108 108 103 98 99 102 117 131 135 134 134 130 129 125 113 109 110 110 110 113 115 113 106 104 108 113
180 149 163 194 211 255 223 213 244 19 53 58 61 62 63 64 66 69 71 75 79 81 86 93 95 94 94 97 102 107 112 114 115 119 124 123 119 113 110 107 101 92 88 87 82 74 66 67 63
164 192 183 151 169 211 263 255 317 48 63 67 69 67 66 64 66 68 68 68 71 72 73 82 89 88 87 92 96 98 102 107 110 109 104 101 106 110 98 89 79 72 73 76 77 69 60 58 47
162 152 110 137 155 207 253 239 239 347 43 72 75 74 72 69 69 67 65 66 68 71 73 74 81 87 88 89 92 95 93 96 101 101 99 94 88 87 89 85 83 79 76 78 79 72 59 53 34
127 128 130 135 161 162 206 253 245 261 144 104 89 80 75 71 70 71 71 71 74 75 76 80 83 86 85 84 86 87 86 87 87 88 87 88 86 88 92 95 93 89 84 80 78 70 52 41 20
137 158 149 154 199 173 166 231 327 99 114 109 97 85 76 74 73 73 74 75 76 78 79 81 83 85 86 87 87 85 83 83 84 84 83 86 87 89 98 100 96 92 86 78 74 60 45 27 5